Regional Weather Roundup
Issued by NWS

Home | Current Version | Previous Version | Graphics & Text | Print | Product List | Glossary Off
Versions: 1 2 3 4 5 6 7 8 9 10 11 12 13 14 15 16 17 18 19 20 21 22 23 24 25 26 27 28 29 30 31 32 33 34 35 36 37 38 39 40 41 42 43 44 45 46 47 48 49 50

000
ASUS43 KDTX 280610
RWRMI
MICHIGAN HOURLY REGIONAL WEATHER ROUNDUP
NATIONAL WEATHER SERVICE DETROIT/PONTIAC MI
200 AM EDT FRI APR 28 2017

NOTE: "FAIR" INDICATES FEW OR NO CLOUDS BELOW 12,000 FEET WITH NO
SIGNIFICANT WEATHER AND/OR OBSTRUCTION TO VISIBILITY.

MIZ047>049-052>055-059>063-066>070-074>076-081>083-280700-
SOUTHEAST LOWER MICHIGAN

CITY           SKY/WX    TMP DP  RH WIND       PRES   REMARKS
ADRIAN         CLOUDY    49  39  68 W10G23    29.89R
6HR MIN TEMP:  49; 6HR MAX TEMP:  51;

ALMA           CLOUDY    45  37  74 SW14G22   29.85R
ANN ARBOR      CLOUDY    50  39  66 SW15G22   29.87R
BAD AXE        CLOUDY    46  37  68 W16G26    29.82R
6HR MIN TEMP:  46; 6HR MAX TEMP:  52;

CARO           CLOUDY    47  38  70 SW12G17   29.83R
DETROIT CITY   MOCLDY    51  38  60 W14G20    29.86R
6HR MIN TEMP:  50; 6HR MAX TEMP:  57;

DETROIT        CLOUDY    52  39  61 W17       29.87R
6HR MIN TEMP:  51; 6HR MAX TEMP:  56;

FLINT          CLOUDY    49  39  68 W12G21    29.85R
6HR MIN TEMP:  48; 6HR MAX TEMP:  52;

GROSSE ILE     CLOUDY    51  41  69 W8        29.85S
6HR MIN TEMP:  51; 6HR MAX TEMP:  56;

HILLSDALE      CLOUDY    46  36  66 W14G21    29.88R
HOWELL         CLOUDY    49  37  65 SW12      29.85R
6HR MIN TEMP:  48; 6HR MAX TEMP:  51;


CITY           SKY/WX    TMP DP  RH WIND       PRES   REMARKS
JACKSON        CLOUDY    49  38  65 W14G21    29.87R
6HR MIN TEMP:  48; 6HR MAX TEMP:  49;

LAMBERTVILLE   CLOUDY    50  41  70 W13G22    29.89R
6HR MIN TEMP:  50; 6HR MAX TEMP:  54;

LANSING        CLOUDY    47  35  63 SW18G30   29.86R
6HR MIN TEMP:  48; 6HR MAX TEMP:  49;

LAPEER         CLOUDY    49  38  64 W12       29.84R
6HR MIN TEMP:  49; 6HR MAX TEMP:  56;

MASON          CLOUDY    48  40  73 W13       29.86R
MONROE         CLOUDY    51  40  68 W13G22    29.87R
6HR MIN TEMP:  50; 6HR MAX TEMP:  55;

MT. CLEMENS    MOCLDY    51  38  60 W13G20    29.84R
6HR MIN TEMP:  50; 6HR MAX TEMP:  58;

PONTIAC        CLOUDY    49  37  63 SW14G20   29.85R
6HR MIN TEMP:  49; 6HR MAX TEMP:  54;

PORT HOPE        N/A     48  37  65 W8G20     29.79R
6HR MIN TEMP:  48; 6HR MAX TEMP:  54;

PORT HURON     CLOUDY    50  36  57 SW7       29.86R
TRI CITIES     CLOUDY    46  38  73 W18G25    29.84R
6HR MIN TEMP:  46; 6HR MAX TEMP:  49;

MIDLAND        CLOUDY    45  35  68 W15G23    29.83R
6HR MIN TEMP:  45; 6HR MAX TEMP:  49;

TROY           CLOUDY    51  34  52 SW20G26   29.88R
SAGINAW HB     CLOUDY    46  34  61 SW21G28   29.83R
$$
MIZ043>046-050>051-056>058-064>065-071>073-077>080-280700-
SOUTHWEST LOWER MICHIGAN

CITY           SKY/WX    TMP DP  RH WIND       PRES   REMARKS
BATTLE CREEK   PTCLDY    45  37  73 W10       29.87R
6HR MIN TEMP:  45; 6HR MAX TEMP:  49;

BENTON HARBOR  CLEAR     44  37  76 W12       29.89R
6HR MIN TEMP:  44; 6HR MAX TEMP:  47;

BIG RAPIDS     CLOUDY    40  35  80 SW12G21   29.80R WCI  33
6HR MIN TEMP:  40; 6HR MAX TEMP:  41;

COLDWATER      CLOUDY    48  37  66 W14G20    29.89R
FREMONT        CLOUDY    41  34  76 W10G22    29.83R
HOLLAND        CLOUDY    44  35  70 SW15G26   29.87R
6HR MIN TEMP:  44; 6HR MAX TEMP:  45;

GRAND RAPIDS   CLOUDY    44  36  73 W18G29    29.85R
6HR MIN TEMP:  44; 6HR MAX TEMP:  46; 6HR PCP: TRACE;

IONIA          CLOUDY    45  35  69 SW18G30   29.85R
6HR MIN TEMP:  44; 6HR MAX TEMP:  47;

KALAMAZOO      CLEAR     46  34  62 SW14      29.88R
6HR MIN TEMP:  46; 6HR MAX TEMP:  49;

LUDINGTON      CLOUDY    41  37  84 SW13G23   29.80R
6HR MIN TEMP:  41; 6HR MAX TEMP:  42;

MARSHALL       CLOUDY    47  38  69 W17G29    29.88R
6HR MIN TEMP:  47; 6HR MAX TEMP:  49;

MOUNT PLEASANT CLOUDY    43  34  70 SW14G20   29.82R
6HR MIN TEMP:  43; 6HR MAX TEMP:  46;

MUSKEGON       CLOUDY    43  35  73 SW13      29.85R
6HR MIN TEMP:  43; 6HR MAX TEMP:  44; 6HR PCP: TRACE;

SOUTH HAVEN    MOCLDY    44  36  74 W12       29.89R
$$
MIZ016>042-280700-
NORTHERN LOWER MICHIGAN

CITY           SKY/WX    TMP DP  RH WIND       PRES   REMARKS
ALPENA         CLOUDY    44  34  67 SW6       29.75R
6HR MIN TEMP:  44; 6HR MAX TEMP:  53;

BEAVER ISLAND  CLOUDY    38  35  87 SW12G18   29.71R WCI  31
6HR MIN TEMP:  35; 6HR MAX TEMP:  38;

BELLAIRE       CLOUDY    41  36  81 SW5       29.74R
6HR MIN TEMP:  41; 6HR MAX TEMP:  42;

CADILLAC       CLOUDY    39  37  89 SW13G25   29.75R WCI  32
CHARLEVOIX     CLOUDY    41  36  81 SW16      29.75R
FRANKFORT      CLOUDY    41  37  85 SW9G18    29.76R
GAYLORD        LGT RAIN  40  35  83 SW8       29.72R WCI  34
6HR MIN TEMP:  40; 6HR MAX TEMP:  44; 6HR PCP: TRACE;

GRAYLING       RAIN      40  37  87 SW9G18    29.75R WCI  34
6HR MIN TEMP:  40; 6HR MAX TEMP:  42;

HARBOR SPRINGS CLOUDY    39  37  91 W8        29.72R WCI  33
HOUGHTON LAKE  LGT RAIN  41  36  82 SW20G28   29.77R
6HR MIN TEMP:  41; 6HR MAX TEMP:  44; 6HR PCP: TRACE;

MANISTEE       LGT RAIN  41  37  87 SW12      29.78R
OSCODA         CLOUDY    45  36  72 SW10      29.77R
6HR MIN TEMP:  45; 6HR MAX TEMP:  52;

PELLSTON       CLOUDY    40  32  73 SW9G18    29.72R WCI  34
6HR MIN TEMP:  39; 6HR MAX TEMP:  42;

ROGERS CITY    CLOUDY    42  33  69 SW6       29.74R
TRAVERSE CITY  CLOUDY    43  38  82 SW9G17    29.73R
6HR MIN TEMP:  41; 6HR MAX TEMP:  43; 6HR PCP:  0.02;

$$
MIZ007>008-015-280700-
EASTERN UPPER MICHIGAN

CITY           SKY/WX    TMP DP  RH WIND       PRES   REMARKS
KINROSS        CLOUDY    36  32  85 SW6       29.69R WCI  31
6HR MIN TEMP:  35; 6HR MAX TEMP:  40; 6HR PCP: TRACE;

MACKINAC ISLAN CLOUDY    38  34  87 SW10G16   29.71R WCI  31
6HR MIN TEMP:  36; 6HR MAX TEMP:  40;

NEWBERRY       CLOUDY    34  32  94 SW10      29.66R WCI  26
6HR MIN TEMP:  33; 6HR MAX TEMP:  35;

S. S. MARIE    CLOUDY    36  33  89 S3        29.68R
6HR MIN TEMP:  34; 6HR MAX TEMP:  43; 6HR PCP: TRACE;

MUNISING         N/A     33  28  81 SW5       29.67R WCI  29
6HR MIN TEMP:  33; 6HR MAX TEMP:  34;

$$
MIZ004>006-011>014-085-280700-
CENTRAL UPPER MICHIGAN

CITY           SKY/WX    TMP DP  RH WIND       PRES   REMARKS
MANISTIQUE     FLURRIES  34  32  94 W6        29.70R WCI  29
6HR MIN TEMP:  33; 6HR MAX TEMP:  34;

ESCANABA       LGT SNOW  33  31  92 SW14      29.71R FOG     WCI  23
6HR MIN TEMP:  33; 6HR MAX TEMP:  35; 6HR PCP: TRACE;

MENOMINEE      CLOUDY    36  30  79 W7        29.75R WCI  30
6HR MIN TEMP:  36; 6HR MAX TEMP:  38; 6HR PCP: TRACE;

SAWYER-GWINN   CLOUDY    30  26  87 W12       29.66R WCI  20
6HR MIN TEMP:  29; 6HR MAX TEMP:  31;

$$
MIZ001>003-009>011-084-280700-
WESTERN UPPER MICHIGAN

CITY           SKY/WX    TMP DP  RH WIND       PRES   REMARKS
IRON MOUNTAIN  CLOUDY    31  25  78 W7        29.67R WCI  24
6HR MIN TEMP:  31; 6HR MAX TEMP:  33;

HOUGHTON       LGT SNOW  29  25  85 W15       29.60R FOG     WCI  18
6HR MIN TEMP:  28; 6HR MAX TEMP:  30; 6HR PCP: TRACE;

COPPER HARBOR    N/A     30  26  85 NW6       29.60R WCI  24
6HR MIN TEMP:  28; 6HR MAX TEMP:  30; 6HR PCP:  0.01;

IRONWOOD       CLOUDY    27  25  92 W15       29.67R WCI  15
6HR MIN TEMP:  27; 6HR MAX TEMP:  27; 6HR PCP: TRACE;

$$

ABBREVIATIONS USED IN REMARKS
   TC - TEMPERATURE IN CELSIUS
  WCI - WIND CHILL INDEX
   HX - HEAT INDEX
  VSB - VISIBILITY





USA.gov is the U.S. government's official web portal to all federal, state and local government web resources and services.